Time,TemperatureF,DewpointF,PressureIn,WindDirection,WindDirectionDegrees,WindSpeedMPH,WindSpeedGustMPH,Humidity,HourlyPrecipIn,Conditions,Clouds,dailyrainin,SoftwareType,DateUTC
2013-03-25 00:04:00,52.1,13.4,29.90,NNE,28,0.0,0.0,21,0.00,,SKC,0.00,VWS V14.01,2013-03-25 07:04:00,
2013-03-25 00:09:00,52.1,13.4,29.91,NNE,28,0.0,0.0,21,0.00,,SKC,0.00,VWS V14.01,2013-03-25 07:09:00,
2013-03-25 00:14:00,52.2,13.5,29.91,NNE,28,0.0,1.0,21,0.00,,SKC,0.00,VWS V14.01,2013-03-25 07:14:00,
2013-03-25 00:19:00,52.0,13.3,29.91,NNE,28,0.0,0.0,21,0.00,,SKC,0.00,VWS V14.01,2013-03-25 07:19:00,
2013-03-25 00:24:00,51.6,14.0,29.91,East,80,0.0,0.0,22,0.00,,SKC,0.00,VWS V14.01,2013-03-25 07:24:00,
2013-03-25 00:29:00,51.5,13.9,29.91,East,82,0.0,0.0,22,0.00,,SKC,0.00,VWS V14.01,2013-03-25 07:29:00,
2013-03-25 00:34:00,51.7,14.1,29.91,East,84,0.0,0.0,22,0.00,,SKC,0.00,VWS V14.01,2013-03-25 07:34:00,
2013-03-25 00:39:00,52.3,13.5,29.91,East,86,0.0,2.0,21,0.00,,SKC,0.00,VWS V14.01,2013-03-25 07:39:00,
2013-03-25 00:44:00,52.6,13.8,29.91,East,86,0.0,2.0,21,0.00,,SKC,0.00,VWS V14.01,2013-03-25 07:44:00,
2013-03-25 00:49:00,52.4,14.7,29.91,East,86,0.0,0.0,22,0.00,,SKC,0.00,VWS V14.01,2013-03-25 07:49:00,
2013-03-25 00:54:00,52.3,13.5,29.91,East,86,0.0,0.0,21,0.00,,SKC,0.00,VWS V14.01,2013-03-25 07:54:00,
2013-03-25 00:59:00,51.9,13.2,29.91,East,86,0.0,0.0,21,0.00,,SKC,0.00,VWS V14.01,2013-03-25 07:59:00,
2013-03-25 01:04:00,50.6,13.2,29.91,East,86,0.0,0.0,22,0.00,,SKC,0.00,VWS V14.01,2013-03-25 08:04:00,
2013-03-25 01:09:00,49.9,12.6,29.91,East,86,0.0,1.0,22,0.00,,SKC,0.00,VWS V14.01,2013-03-25 08:09:00,
2013-03-25 01:14:00,49.7,13.4,29.91,East,86,1.0,2.0,23,0.00,,SKC,0.00,VWS V14.01,2013-03-25 08:14:00,
2013-03-25 01:20:00,49.9,13.6,29.91,East,86,0.0,0.0,23,0.00,,SKC,0.00,VWS V14.01,2013-03-25 08:20:00,
2013-03-25 01:25:00,49.9,13.6,29.91,East,86,0.0,0.0,23,0.00,,SKC,0.00,VWS V14.01,2013-03-25 08:25:00,
2013-03-25 01:30:00,49.9,14.6,29.91,East,86,0.0,0.0,24,0.00,,SKC,0.00,VWS V14.01,2013-03-25 08:30:00,
2013-03-25 01:35:00,49.8,14.5,29.91,East,86,0.0,0.0,24,0.00,,SKC,0.00,VWS V14.01,2013-03-25 08:35:00,
2013-03-25 01:40:00,49.2,14.9,29.91,East,86,0.0,0.0,25,0.00,,SKC,0.00,VWS V14.01,2013-03-25 08:40:00,
2013-03-25 01:45:00,48.8,13.6,29.91,East,86,0.0,0.0,24,0.00,,SKC,0.00,VWS V14.01,2013-03-25 08:45:00,
2013-03-25 01:50:00,48.5,14.3,29.91,East,86,0.0,0.0,25,0.00,,SKC,0.00,VWS V14.01,2013-03-25 08:50:00,
2013-03-25 01:55:00,47.9,12.9,29.90,East,86,0.0,2.0,24,0.00,,SKC,0.00,VWS V14.01,2013-03-25 08:55:00,
2013-03-25 02:00:00,47.7,13.6,29.90,East,86,0.0,2.0,25,0.00,,SKC,0.00,VWS V14.01,2013-03-25 09:00:00,
2013-03-25 02:05:00,47.4,13.4,29.90,East,86,0.0,0.0,25,0.00,,SKC,0.00,VWS V14.01,2013-03-25 09:05:00,
2013-03-25 02:10:00,47.2,13.2,29.90,East,86,0.0,0.0,25,0.00,,SKC,0.00,VWS V14.01,2013-03-25 09:10:00,
2013-03-25 02:15:00,47.0,13.9,29.90,East,86,0.0,0.0,26,0.00,,SKC,0.00,VWS V14.01,2013-03-25 09:15:00,
2013-03-25 02:20:00,47.0,13.9,29.90,East,86,0.0,0.0,26,0.00,,SKC,0.00,VWS V14.01,2013-03-25 09:20:00,
2013-03-25 02:25:00,47.1,14.0,29.91,East,86,0.0,0.0,26,0.00,,SKC,0.00,VWS V14.01,2013-03-25 09:25:00,
2013-03-25 02:30:00,47.3,14.2,29.90,East,86,0.0,0.0,26,0.00,,SKC,0.00,VWS V14.01,2013-03-25 09:30:00,
2013-03-25 02:35:00,47.4,14.2,29.90,East,86,0.0,0.0,26,0.00,,SKC,0.00,VWS V14.01,2013-03-25 09:35:00,
2013-03-25 02:41:00,47.3,14.2,29.90,East,86,0.0,0.0,26,0.00,,SKC,0.00,VWS V14.01,2013-03-25 09:41:00,
2013-03-25 02:46:00,47.1,14.0,29.90,East,86,0.0,0.0,26,0.00,,SKC,0.00,VWS V14.01,2013-03-25 09:46:00,
2013-03-25 02:51:00,46.8,13.7,29.90,East,86,0.0,0.0,26,0.00,,SKC,0.00,VWS V14.01,2013-03-25 09:51:00,
2013-03-25 02:56:00,46.4,13.4,29.90,East,86,0.0,0.0,26,0.00,,SKC,0.00,VWS V14.01,2013-03-25 09:56:00,
2013-03-25 03:01:00,46.3,14.2,29.90,East,86,0.0,0.0,27,0.00,,SKC,0.00,VWS V14.01,2013-03-25 10:01:00,
2013-03-25 03:06:00,45.8,12.9,29.90,East,86,0.0,0.0,26,0.00,,SKC,0.00,VWS V14.01,2013-03-25 10:06:00,
2013-03-25 03:12:00,45.7,13.6,29.90,East,86,0.0,0.0,27,0.00,,SKC,0.00,VWS V14.01,2013-03-25 10:12:00,
2013-03-25 03:17:00,45.6,13.6,29.90,East,86,0.0,0.0,27,0.00,,SKC,0.00,VWS V14.01,2013-03-25 10:17:00,
2013-03-25 03:22:00,45.5,13.5,29.90,East,86,0.0,0.0,27,0.00,,SKC,0.00,VWS V14.01,2013-03-25 10:22:00,
2013-03-25 03:27:00,45.2,13.2,29.90,East,86,0.0,2.0,27,0.00,,SKC,0.00,VWS V14.01,2013-03-25 10:27:00,
2013-03-25 03:32:00,45.1,13.1,29.90,East,86,0.0,0.0,27,0.00,,SKC,0.00,VWS V14.01,2013-03-25 10:32:00,
2013-03-25 03:37:00,45.2,13.2,29.90,East,86,0.0,0.0,27,0.00,,SKC,0.00,VWS V14.01,2013-03-25 10:37:00,
2013-03-25 03:42:00,45.6,13.6,29.90,East,86,0.0,0.0,27,0.00,,SKC,0.00,VWS V14.01,2013-03-25 10:42:00,
2013-03-25 03:47:00,46.0,13.1,29.90,East,86,0.0,0.0,26,0.00,,SKC,0.00,VWS V14.01,2013-03-25 10:47:00,
2013-03-25 03:52:00,46.6,13.6,29.90,East,86,0.0,0.0,26,0.00,,SKC,0.00,VWS V14.01,2013-03-25 10:52:00,
2013-03-25 03:58:00,47.0,13.9,29.91,East,86,0.0,0.0,26,0.00,,SKC,0.00,VWS V14.01,2013-03-25 10:58:00,
2013-03-25 04:03:00,47.0,13.9,29.91,East,86,0.0,0.0,26,0.00,,SKC,0.00,VWS V14.01,2013-03-25 11:03:00,
2013-03-25 04:08:00,46.9,13.8,29.91,East,86,0.0,0.0,26,0.00,,SKC,0.00,VWS V14.01,2013-03-25 11:08:00,
2013-03-25 04:13:00,46.1,14.0,29.91,East,86,0.0,0.0,27,0.00,,SKC,0.00,VWS V14.01,2013-03-25 11:13:00,
2013-03-25 04:18:00,45.0,13.9,29.90,East,86,0.0,0.0,28,0.00,,SKC,0.00,VWS V14.01,2013-03-25 11:18:00,
2013-03-25 04:23:00,44.8,13.7,29.90,East,86,0.0,0.0,28,0.00,,SKC,0.00,VWS V14.01,2013-03-25 11:23:00,
2013-03-25 04:28:00,44.6,13.5,29.90,East,86,0.0,0.0,28,0.00,,SKC,0.00,VWS V14.01,2013-03-25 11:28:00,
2013-03-25 04:33:00,44.2,13.2,29.91,East,86,0.0,0.0,28,0.00,,SKC,0.00,VWS V14.01,2013-03-25 11:33:00,
2013-03-25 04:38:00,44.1,13.9,29.91,East,86,0.0,0.0,29,0.00,,SKC,0.00,VWS V14.01,2013-03-25 11:38:00,
2013-03-25 04:43:00,44.1,13.9,29.91,East,86,0.0,0.0,29,0.00,,SKC,0.00,VWS V14.01,2013-03-25 11:43:00,
2013-03-25 04:48:00,44.1,14.7,29.91,East,86,0.0,0.0,30,0.00,,SKC,0.00,VWS V14.01,2013-03-25 11:48:00,
2013-03-25 04:54:00,44.2,15.5,29.91,East,86,0.0,0.0,31,0.00,,SKC,0.00,VWS V14.01,2013-03-25 11:54:00,
2013-03-25 04:59:00,44.1,15.4,29.91,East,86,0.0,0.0,31,0.00,,SKC,0.00,VWS V14.01,2013-03-25 11:59:00,
2013-03-25 05:04:00,44.1,15.4,29.91,East,86,0.0,0.0,31,0.00,,SKC,0.00,VWS V14.01,2013-03-25 12:04:00,
2013-03-25 05:09:00,44.1,15.4,29.91,East,86,0.0,0.0,31,0.00,,SKC,0.00,VWS V14.01,2013-03-25 12:09:00,
2013-03-25 05:14:00,44.1,15.4,29.91,East,86,0.0,0.0,31,0.00,,SKC,0.00,VWS V14.01,2013-03-25 12:14:00,
2013-03-25 05:19:00,44.2,15.5,29.92,East,86,0.0,0.0,31,0.00,,SKC,0.00,VWS V14.01,2013-03-25 12:19:00,
2013-03-25 05:24:00,44.1,16.1,29.92,East,86,0.0,0.0,32,0.00,,SKC,0.00,VWS V14.01,2013-03-25 12:24:00,
2013-03-25 05:29:00,43.8,15.1,29.92,East,86,0.0,0.0,31,0.00,,SKC,0.00,VWS V14.01,2013-03-25 12:29:00,
2013-03-25 05:34:00,43.6,15.0,29.92,East,86,0.0,0.0,31,0.00,,SKC,0.00,VWS V14.01,2013-03-25 12:34:00,
2013-03-25 05:39:00,43.3,14.7,29.92,East,86,0.0,0.0,31,0.00,,SKC,0.00,VWS V14.01,2013-03-25 12:39:00,
2013-03-25 05:45:00,42.9,14.4,29.92,East,91,0.0,1.0,31,0.00,,SKC,0.00,VWS V14.01,2013-03-25 12:45:00,
2013-03-25 05:50:00,42.4,13.9,29.92,East,92,0.0,0.0,31,0.00,,SKC,0.00,VWS V14.01,2013-03-25 12:50:00,
2013-03-25 05:55:00,42.0,14.3,29.92,East,92,0.0,0.0,32,0.00,,SKC,0.00,VWS V14.01,2013-03-25 12:55:00,
2013-03-25 06:00:00,41.9,14.9,29.92,East,91,0.0,0.0,33,0.00,,SKC,0.00,VWS V14.01,2013-03-25 13:00:00,
2013-03-25 06:05:00,42.2,15.2,29.93,East,92,0.0,0.0,33,0.00,,SKC,0.00,VWS V14.01,2013-03-25 13:05:00,
2013-03-25 06:10:00,43.1,13.8,29.92,East,96,0.0,0.0,30,0.00,,SKC,0.00,VWS V14.01,2013-03-25 13:10:00,
2013-03-25 06:15:00,44.6,14.3,29.93,SE,125,0.0,2.0,29,0.00,,SKC,0.00,VWS V14.01,2013-03-25 13:15:00,
2013-03-25 06:20:00,45.9,14.6,29.93,SSE,150,2.0,3.0,28,0.00,,SKC,0.00,VWS V14.01,2013-03-25 13:20:00,
2013-03-25 06:25:00,47.0,14.8,29.93,SSE,157,2.0,3.0,27,0.00,,SKC,0.00,VWS V14.01,2013-03-25 13:25:00,
2013-03-25 06:30:00,47.8,14.6,29.93,SSE,152,3.0,3.0,26,0.00,,SKC,0.00,VWS V14.01,2013-03-25 13:30:00,
2013-03-25 06:35:00,48.2,14.9,29.93,SSE,159,1.0,3.0,26,0.00,,SKC,0.00,VWS V14.01,2013-03-25 13:35:00,
2013-03-25 06:40:00,48.6,14.4,29.94,SSE,163,0.0,3.0,25,0.00,,SKC,0.00,VWS V14.01,2013-03-25 13:40:00,
2013-03-25 06:46:00,49.4,15.1,29.94,SE,142,4.0,5.0,25,0.00,,SKC,0.00,VWS V14.01,2013-03-25 13:46:00,
2013-03-25 06:51:00,50.8,14.4,29.94,SSE,156,0.0,4.0,23,0.00,,SKC,0.00,VWS V14.01,2013-03-25 13:51:00,
2013-03-25 06:56:00,51.6,15.0,29.94,SSE,159,3.0,7.0,23,0.00,,SKC,0.00,VWS V14.01,2013-03-25 13:56:00,
2013-03-25 07:01:00,52.3,14.6,29.95,SE,145,5.0,7.0,22,0.00,,SKC,0.00,VWS V14.01,2013-03-25 14:01:00,
2013-03-25 07:06:00,52.8,15.0,29.95,SSE,155,2.0,3.0,22,0.00,,SKC,0.00,VWS V14.01,2013-03-25 14:06:00,
2013-03-25 07:11:00,53.6,15.7,29.95,SSE,164,2.0,4.0,22,0.00,,SKC,0.00,VWS V14.01,2013-03-25 14:11:00,
2013-03-25 07:16:00,54.3,15.2,29.95,SSE,155,4.0,5.0,21,0.00,,SKC,0.00,VWS V14.01,2013-03-25 14:16:00,
2013-03-25 07:21:00,54.8,15.6,29.96,SSE,149,3.0,5.0,21,0.00,,SKC,0.00,VWS V14.01,2013-03-25 14:21:00,
2013-03-25 07:27:00,55.6,16.3,29.96,SE,140,5.0,5.0,21,0.00,,SKC,0.00,VWS V14.01,2013-03-25 14:27:00,
2013-03-25 07:32:00,56.4,17.0,29.96,SSE,155,0.0,0.0,21,0.00,,SKC,0.00,VWS V14.01,2013-03-25 14:32:00,
2013-03-25 07:37:00,57.3,16.6,29.96,SE,146,0.0,3.0,20,0.00,,SKC,0.00,VWS V14.01,2013-03-25 14:37:00,
2013-03-25 07:42:00,58.2,17.3,29.96,SSE,149,1.0,4.0,20,0.00,,SKC,0.00,VWS V14.01,2013-03-25 14:42:00,
2013-03-25 07:47:00,59.0,18.0,29.97,SSE,160,0.0,0.0,20,0.00,,SKC,0.00,VWS V14.01,2013-03-25 14:47:00,
2013-03-25 07:52:00,59.5,17.2,29.97,South,173,3.0,3.0,19,0.00,,SKC,0.00,VWS V14.01,2013-03-25 14:52:00,
2013-03-25 07:57:00,59.7,17.4,29.97,South,180,0.0,5.0,19,0.00,,SKC,0.00,VWS V14.01,2013-03-25 14:57:00,
2013-03-25 08:02:00,60.0,18.8,29.97,South,187,0.0,5.0,20,0.00,,SKC,0.00,VWS V14.01,2013-03-25 15:02:00,
2013-03-25 08:07:00,59.5,18.4,29.97,SSW,205,4.0,5.0,20,0.00,,SKC,0.00,VWS V14.01,2013-03-25 15:07:00,
2013-03-25 08:12:00,58.7,17.8,29.97,SW,217,5.0,5.0,20,0.00,,SKC,0.00,VWS V14.01,2013-03-25 15:12:00,
2013-03-25 08:17:00,58.0,18.3,29.97,SSW,211,4.0,5.0,21,0.00,,SKC,0.00,VWS V14.01,2013-03-25 15:17:00,
2013-03-25 08:22:00,57.9,18.2,29.97,SW,217,4.0,7.0,21,0.00,,SKC,0.00,VWS V14.01,2013-03-25 15:22:00,
2013-03-25 08:27:00,58.3,18.6,29.97,SSW,205,6.0,7.0,21,0.00,,SKC,0.00,VWS V14.01,2013-03-25 15:27:00,
2013-03-25 08:32:00,58.5,18.7,29.97,SSW,211,4.0,4.0,21,0.00,,SKC,0.00,VWS V14.01,2013-03-25 15:32:00,
2013-03-25 08:38:00,59.0,18.0,29.97,SW,215,3.0,5.0,20,0.00,,SKC,0.00,VWS V14.01,2013-03-25 15:38:00,
2013-03-25 08:43:00,59.6,18.5,29.97,South,190,0.0,5.0,20,0.00,,SKC,0.00,VWS V14.01,2013-03-25 15:43:00,
2013-03-25 08:48:00,60.0,18.8,29.97,SSW,209,0.0,5.0,20,0.00,,SKC,0.00,VWS V14.01,2013-03-25 15:48:00,
2013-03-25 08:53:00,60.5,19.2,29.97,South,190,0.0,5.0,20,0.00,,SKC,0.00,VWS V14.01,2013-03-25 15:53:00,
2013-03-25 08:58:00,61.5,18.9,29.97,South,186,3.0,5.0,19,0.00,,SKC,0.00,VWS V14.01,2013-03-25 15:58:00,
2013-03-25 09:03:00,62.0,19.3,29.97,SSW,193,0.0,1.0,19,0.00,,SKC,0.00,VWS V14.01,2013-03-25 16:03:00,
2013-03-25 09:08:00,63.1,20.2,29.97,SSW,192,1.0,1.0,19,0.00,,SKC,0.00,VWS V14.01,2013-03-25 16:08:00,
2013-03-25 09:13:00,63.9,18.3,29.97,South,181,2.0,2.0,17,0.00,,SKC,0.00,VWS V14.01,2013-03-25 16:13:00,
2013-03-25 09:18:00,64.5,18.8,29.97,South,182,0.0,3.0,17,0.00,,SKC,0.00,VWS V14.01,2013-03-25 16:18:00,
2013-03-25 09:23:00,64.7,18.9,29.97,South,170,1.0,3.0,17,0.00,,SKC,0.00,VWS V14.01,2013-03-25 16:23:00,
2013-03-25 09:28:00,65.5,19.6,29.97,South,170,0.0,3.0,17,0.00,,SKC,0.00,VWS V14.01,2013-03-25 16:28:00,
2013-03-25 09:33:00,66.1,20.0,29.97,SSE,163,0.0,1.0,17,0.00,,SKC,0.00,VWS V14.01,2013-03-25 16:33:00,
2013-03-25 09:38:00,66.9,20.7,29.97,SSE,167,0.0,2.0,17,0.00,,SKC,0.00,VWS V14.01,2013-03-25 16:38:00,
2013-03-25 09:43:00,67.5,19.8,29.97,SSW,192,0.0,3.0,16,0.00,,SKC,0.00,VWS V14.01,2013-03-25 16:43:00,
2013-03-25 09:48:00,68.0,20.2,29.97,SSW,205,0.0,1.0,16,0.00,,SKC,0.00,VWS V14.01,2013-03-25 16:48:00,
2013-03-25 09:53:00,68.7,19.2,29.97,South,187,0.0,1.0,15,0.00,,SKC,0.00,VWS V14.01,2013-03-25 16:53:00,
2013-03-25 09:59:00,69.4,19.8,29.97,SSE,152,2.0,2.0,15,0.00,,SKC,0.00,VWS V14.01,2013-03-25 16:59:00,
2013-03-25 10:04:00,69.3,19.7,29.97,SSE,160,0.0,4.0,15,0.00,,SKC,0.00,VWS V14.01,2013-03-25 17:04:00,
2013-03-25 10:09:00,70.1,20.3,29.96,South,172,4.0,4.0,15,0.00,,SKC,0.00,VWS V14.01,2013-03-25 17:09:00,
2013-03-25 10:14:00,70.8,20.9,29.96,SSE,166,0.0,4.0,15,0.00,,SKC,0.00,VWS V14.01,2013-03-25 17:14:00,
2013-03-25 10:19:00,71.3,21.3,29.97,SSW,211,4.0,5.0,15,0.00,,SKC,0.00,VWS V14.01,2013-03-25 17:19:00,
2013-03-25 10:24:00,70.9,21.0,29.96,SSE,158,0.0,5.0,15,0.00,,SKC,0.00,VWS V14.01,2013-03-25 17:24:00,
2013-03-25 10:29:00,71.4,19.8,29.96,South,182,0.0,8.0,14,0.00,,SKC,0.00,VWS V14.01,2013-03-25 17:29:00,
2013-03-25 10:34:00,71.6,21.5,29.96,SSE,167,0.0,1.0,15,0.00,,SKC,0.00,VWS V14.01,2013-03-25 17:34:00,
2013-03-25 10:39:00,71.6,19.9,29.96,SSE,167,2.0,6.0,14,0.00,,SKC,0.00,VWS V14.01,2013-03-25 17:39:00,
2013-03-25 10:44:00,72.2,20.4,29.96,SSE,152,0.0,6.0,14,0.00,,SKC,0.00,VWS V14.01,2013-03-25 17:44:00,
2013-03-25 10:49:00,72.8,20.9,29.96,ESE,123,1.0,4.0,14,0.00,,SKC,0.00,VWS V14.01,2013-03-25 17:49:00,
2013-03-25 10:55:00,73.1,21.1,29.95,South,170,0.0,5.0,14,0.00,,SKC,0.00,VWS V14.01,2013-03-25 17:55:00,
2013-03-25 11:00:00,73.2,21.2,29.95,SSE,167,0.0,8.0,14,0.00,,SKC,0.00,VWS V14.01,2013-03-25 18:00:00,
2013-03-25 11:05:00,73.2,21.2,29.95,SSW,194,7.0,8.0,14,0.00,,SKC,0.00,VWS V14.01,2013-03-25 18:05:00,
2013-03-25 11:10:00,72.6,20.7,29.95,WSW,237,3.0,8.0,14,0.00,,SKC,0.00,VWS V14.01,2013-03-25 18:10:00,
2013-03-25 11:15:00,72.8,20.9,29.95,SE,142,0.0,8.0,14,0.00,,SKC,0.00,VWS V14.01,2013-03-25 18:15:00,
2013-03-25 11:20:00,73.4,23.0,29.94,ESE,119,2.0,2.0,15,0.00,,SKC,0.00,VWS V14.01,2013-03-25 18:20:00,
2013-03-25 11:25:00,74.1,23.5,29.94,SE,132,0.0,5.0,15,0.00,,SKC,0.00,VWS V14.01,2013-03-25 18:25:00,
2013-03-25 11:30:00,74.3,22.1,29.93,SE,134,1.0,7.0,14,0.00,,SKC,0.00,VWS V14.01,2013-03-25 18:30:00,
2013-03-25 11:35:00,74.0,23.5,29.93,ESE,104,0.0,5.0,15,0.00,,SKC,0.00,VWS V14.01,2013-03-25 18:35:00,
2013-03-25 11:40:00,74.4,23.8,29.93,SE,141,3.0,5.0,15,0.00,,SKC,0.00,VWS V14.01,2013-03-25 18:40:00,
2013-03-25 11:45:00,74.9,24.2,29.93,SSE,148,4.0,5.0,15,0.00,,SKC,0.00,VWS V14.01,2013-03-25 18:45:00,
2013-03-25 11:50:00,74.8,22.5,29.93,ESE,117,0.0,4.0,14,0.00,,SKC,0.00,VWS V14.01,2013-03-25 18:50:00,
2013-03-25 11:55:00,75.0,22.6,29.93,SSE,161,4.0,4.0,14,0.00,,SKC,0.00,VWS V14.01,2013-03-25 18:55:00,
2013-03-25 12:00:00,75.2,22.8,29.93,SSW,202,1.0,7.0,14,0.00,,SKC,0.00,VWS V14.01,2013-03-25 19:00:00,
2013-03-25 12:05:00,75.2,22.8,29.93,South,175,0.0,4.0,14,0.00,,SKC,0.00,VWS V14.01,2013-03-25 19:05:00,
2013-03-25 12:10:00,75.7,23.2,29.93,SSE,155,2.0,4.0,14,0.00,,SKC,0.00,VWS V14.01,2013-03-25 19:10:00,
2013-03-25 12:15:00,75.9,23.3,29.93,South,173,0.0,4.0,14,0.00,,SKC,0.00,VWS V14.01,2013-03-25 19:15:00,
2013-03-25 12:21:00,76.0,23.4,29.93,ENE,64,4.0,7.0,14,0.00,,SKC,0.00,VWS V14.01,2013-03-25 19:21:00,
2013-03-25 12:26:00,75.7,23.2,29.92,WSW,242,0.0,7.0,14,0.00,,SKC,0.00,VWS V14.01,2013-03-25 19:26:00,
2013-03-25 12:31:00,76.9,24.1,29.92,SSE,152,0.0,7.0,14,0.00,,SKC,0.00,VWS V14.01,2013-03-25 19:31:00,
2013-03-25 12:36:00,76.8,24.0,29.92,NE,50,2.0,6.0,14,0.00,,SKC,0.00,VWS V14.01,2013-03-25 19:36:00,
2013-03-25 12:42:00,76.2,23.6,29.91,East,90,2.0,6.0,14,0.00,,SKC,0.00,VWS V14.01,2013-03-25 19:42:00,
2013-03-25 12:47:00,75.9,23.3,29.91,ESE,111,5.0,5.0,14,0.00,,SKC,0.00,VWS V14.01,2013-03-25 19:47:00,
2013-03-25 12:52:00,76.6,23.9,29.91,SSE,159,0.0,5.0,14,0.00,,SKC,0.00,VWS V14.01,2013-03-25 19:52:00,
2013-03-25 12:57:00,76.7,24.0,29.91,SSW,192,0.0,10.0,14,0.00,,SKC,0.00,VWS V14.01,2013-03-25 19:57:00,
2013-03-25 13:02:00,77.5,24.6,29.91,SE,142,0.0,10.0,14,0.00,,SKC,0.00,VWS V14.01,2013-03-25 20:02:00,
2013-03-25 13:07:00,78.4,23.5,29.91,East,92,0.0,7.0,13,0.00,,SKC,0.00,VWS V14.01,2013-03-25 20:07:00,
2013-03-25 13:12:00,77.8,23.1,29.91,SE,132,0.0,7.0,13,0.00,,SKC,0.00,VWS V14.01,2013-03-25 20:12:00,
2013-03-25 13:17:00,78.2,23.4,29.91,South,179,0.0,0.0,13,0.00,,SKC,0.00,VWS V14.01,2013-03-25 20:17:00,
2013-03-25 13:22:00,78.3,23.5,29.90,WSW,257,2.0,8.0,13,0.00,,SKC,0.00,VWS V14.01,2013-03-25 20:22:00,
2013-03-25 13:27:00,78.4,23.5,29.90,NE,45,3.0,8.0,13,0.00,,SKC,0.00,VWS V14.01,2013-03-25 20:27:00,
2013-03-25 13:32:00,78.7,23.8,29.89,ENE,77,1.0,2.0,13,0.00,,SKC,0.00,VWS V14.01,2013-03-25 20:32:00,
2013-03-25 13:37:00,78.7,23.8,29.89,NNW,338,2.0,5.0,13,0.00,,SKC,0.00,VWS V14.01,2013-03-25 20:37:00,
2013-03-25 13:42:00,79.6,24.5,29.89,NNE,13,6.0,8.0,13,0.00,,SKC,0.00,VWS V14.01,2013-03-25 20:42:00,
2013-03-25 13:47:00,79.6,24.5,29.89,NNW,337,7.0,7.0,13,0.00,,SKC,0.00,VWS V14.01,2013-03-25 20:47:00,
2013-03-25 13:53:00,79.1,24.1,29.89,North,355,2.0,7.0,13,0.00,,SKC,0.00,VWS V14.01,2013-03-25 20:53:00,
2013-03-25 13:58:00,79.0,24.0,29.89,WSW,246,5.0,7.0,13,0.00,,SKC,0.00,VWS V14.01,2013-03-25 20:58:00,
2013-03-25 14:03:00,78.7,23.8,29.88,SSW,194,0.0,6.0,13,0.00,,SKC,0.00,VWS V14.01,2013-03-25 21:03:00,
2013-03-25 14:08:00,78.9,23.9,29.88,South,179,3.0,6.0,13,0.00,,SKC,0.00,VWS V14.01,2013-03-25 21:08:00,
2013-03-25 14:13:00,79.4,24.3,29.88,WNW,290,3.0,6.0,13,0.00,,SKC,0.00,VWS V14.01,2013-03-25 21:13:00,
2013-03-25 14:18:00,79.6,24.5,29.88,NW,310,1.0,8.0,13,0.00,,SKC,0.00,VWS V14.01,2013-03-25 21:18:00,
2013-03-25 14:23:00,79.8,24.6,29.88,West,273,5.0,8.0,13,0.00,,SKC,0.00,VWS V14.01,2013-03-25 21:23:00,
2013-03-25 14:28:00,80.2,25.0,29.88,SW,229,0.0,8.0,13,0.00,,SKC,0.00,VWS V14.01,2013-03-25 21:28:00,
2013-03-25 14:33:00,80.5,25.2,29.88,NNW,329,7.0,7.0,13,0.00,,SKC,0.00,VWS V14.01,2013-03-25 21:33:00,
2013-03-25 14:38:00,80.9,23.6,29.88,NNW,336,2.0,9.0,12,0.00,,SKC,0.00,VWS V14.01,2013-03-25 21:38:00,
2013-03-25 14:43:00,80.5,25.2,29.88,WNW,303,4.0,9.0,13,0.00,,SKC,0.00,VWS V14.01,2013-03-25 21:43:00,
2013-03-25 14:48:00,80.0,24.8,29.88,NW,323,7.0,9.0,13,0.00,,SKC,0.00,VWS V14.01,2013-03-25 21:48:00,
2013-03-25 14:53:00,79.6,24.5,29.88,North,360,0.0,9.0,13,0.00,,SKC,0.00,VWS V14.01,2013-03-25 21:53:00,
2013-03-25 14:58:00,79.5,24.4,29.87,WSW,250,0.0,9.0,13,0.00,,SKC,0.00,VWS V14.01,2013-03-25 21:58:00,
2013-03-25 15:03:00,79.5,24.4,29.87,West,266,1.0,6.0,13,0.00,,SKC,0.00,VWS V14.01,2013-03-25 22:03:00,
2013-03-25 15:08:00,80.1,24.9,29.87,West,260,7.0,12.0,13,0.00,,SKC,0.00,VWS V14.01,2013-03-25 22:08:00,
2013-03-25 15:14:00,79.6,24.5,29.86,SW,229,2.0,12.0,13,0.00,,SKC,0.00,VWS V14.01,2013-03-25 22:14:00,
2013-03-25 15:19:00,79.8,24.6,29.86,NNE,30,9.0,10.0,13,0.00,,SKC,0.00,VWS V14.01,2013-03-25 22:19:00,
2013-03-25 15:24:00,80.8,25.4,29.86,North,9,8.0,12.0,13,0.00,,SKC,0.00,VWS V14.01,2013-03-25 22:24:00,
2013-03-25 15:29:00,81.1,25.6,29.86,ENE,78,7.0,15.0,13,0.00,,SKC,0.00,VWS V14.01,2013-03-25 22:29:00,
2013-03-25 15:34:00,80.7,25.3,29.87,North,350,8.0,9.0,13,0.00,,SKC,0.00,VWS V14.01,2013-03-25 22:34:00,
2013-03-25 15:39:00,79.7,24.5,29.87,NE,40,5.0,9.0,13,0.00,,SKC,0.00,VWS V14.01,2013-03-25 22:39:00,
2013-03-25 15:44:00,80.0,24.8,29.86,North,355,10.0,10.0,13,0.00,,SKC,0.00,VWS V14.01,2013-03-25 22:44:00,
2013-03-25 15:49:00,80.2,25.0,29.86,North,360,7.0,7.0,13,0.00,,SKC,0.00,VWS V14.01,2013-03-25 22:49:00,
2013-03-25 15:54:00,80.2,25.0,29.86,NNE,14,5.0,9.0,13,0.00,,SKC,0.00,VWS V14.01,2013-03-25 22:54:00,
2013-03-25 15:59:00,80.9,25.5,29.86,NNW,335,8.0,9.0,13,0.00,,SKC,0.00,VWS V14.01,2013-03-25 22:59:00,
2013-03-25 16:04:00,80.7,25.3,29.86,ENE,63,8.0,10.0,13,0.00,,SKC,0.00,VWS V14.01,2013-03-25 23:04:00,
2013-03-25 16:09:00,79.7,24.5,29.86,NNE,26,2.0,10.0,13,0.00,,SKC,0.00,VWS V14.01,2013-03-25 23:09:00,
2013-03-25 16:14:00,80.1,24.9,29.85,NW,321,6.0,10.0,13,0.00,,SKC,0.00,VWS V14.01,2013-03-25 23:14:00,
2013-03-25 16:19:00,80.1,24.9,29.85,North,360,3.0,10.0,13,0.00,,SKC,0.00,VWS V14.01,2013-03-25 23:19:00,
2013-03-25 16:24:00,80.3,25.0,29.85,NW,307,6.0,10.0,13,0.00,,SKC,0.00,VWS V14.01,2013-03-25 23:24:00,
2013-03-25 16:29:00,80.5,25.2,29.86,NW,317,8.0,10.0,13,0.00,,SKC,0.00,VWS V14.01,2013-03-25 23:29:00,
2013-03-25 16:34:00,79.9,24.7,29.85,NNW,329,8.0,14.0,13,0.00,,SKC,0.00,VWS V14.01,2013-03-25 23:34:00,
2013-03-25 16:39:00,79.7,24.5,29.85,NNW,337,7.0,14.0,13,0.00,,SKC,0.00,VWS V14.01,2013-03-25 23:39:00,
2013-03-25 16:44:00,79.6,26.3,29.86,North,355,2.0,14.0,14,0.00,,SKC,0.00,VWS V14.01,2013-03-25 23:44:00,
2013-03-25 16:49:00,79.9,24.7,29.86,NNW,337,8.0,10.0,13,0.00,,SKC,0.00,VWS V14.01,2013-03-25 23:49:00,
2013-03-25 16:55:00,79.3,24.2,29.85,North,11,2.0,10.0,13,0.00,,SKC,0.00,VWS V14.01,2013-03-25 23:55:00,
2013-03-25 17:00:00,79.2,24.2,29.86,NNE,18,2.0,10.0,13,0.00,,SKC,0.00,VWS V14.01,2013-03-26 00:00:00,
2013-03-25 17:05:00,79.2,25.9,29.86,NW,321,7.0,10.0,14,0.00,,SKC,0.00,VWS V14.01,2013-03-26 00:05:00,
2013-03-25 17:10:00,79.1,25.9,29.86,NNW,343,8.0,10.0,14,0.00,,SKC,0.00,VWS V14.01,2013-03-26 00:10:00,
2013-03-25 17:15:00,79.0,25.8,29.85,NNW,333,1.0,11.0,14,0.00,,SKC,0.00,VWS V14.01,2013-03-26 00:15:00,
2013-03-25 17:20:00,79.1,25.9,29.85,NNW,333,5.0,9.0,14,0.00,,SKC,0.00,VWS V14.01,2013-03-26 00:20:00,
2013-03-25 17:25:00,79.1,25.9,29.85,North,360,6.0,9.0,14,0.00,,SKC,0.00,VWS V14.01,2013-03-26 00:25:00,
2013-03-25 17:30:00,78.7,25.5,29.85,NNW,340,4.0,9.0,14,0.00,,SKC,0.00,VWS V14.01,2013-03-26 00:30:00,
2013-03-25 17:35:00,78.7,25.5,29.85,NNW,348,2.0,7.0,14,0.00,,SKC,0.00,VWS V14.01,2013-03-26 00:35:00,
2013-03-25 17:40:00,78.7,25.5,29.85,NNW,330,1.0,7.0,14,0.00,,SKC,0.00,VWS V14.01,2013-03-26 00:40:00,
2013-03-25 17:45:00,78.9,25.7,29.85,NNW,332,4.0,7.0,14,0.00,,SKC,0.00,VWS V14.01,2013-03-26 00:45:00,
2013-03-25 17:50:00,78.4,25.3,29.86,NNW,345,1.0,6.0,14,0.00,,SKC,0.00,VWS V14.01,2013-03-26 00:50:00,
2013-03-25 17:55:00,78.3,25.2,29.86,NNW,329,0.0,6.0,14,0.00,,SKC,0.00,VWS V14.01,2013-03-26 00:55:00,
2013-03-25 18:00:00,78.5,25.4,29.86,NNE,13,4.0,6.0,14,0.00,,SKC,0.00,VWS V14.01,2013-03-26 01:00:00,
2013-03-25 18:05:00,78.0,25.0,29.86,NNW,336,4.0,6.0,14,0.00,,SKC,0.00,VWS V14.01,2013-03-26 01:05:00,
2013-03-25 18:10:00,77.5,24.6,29.86,NNE,17,1.0,8.0,14,0.00,,SKC,0.00,VWS V14.01,2013-03-26 01:10:00,
2013-03-25 18:16:00,76.9,24.1,29.86,NNE,27,0.0,8.0,14,0.00,,SKC,0.00,VWS V14.01,2013-03-26 01:16:00,
2013-03-25 18:21:00,76.5,23.8,29.86,NNE,30,0.0,6.0,14,0.00,,SKC,0.00,VWS V14.01,2013-03-26 01:21:00,
2013-03-25 18:26:00,76.0,25.1,29.86,NNE,26,0.0,6.0,15,0.00,,SKC,0.00,VWS V14.01,2013-03-26 01:26:00,
2013-03-25 18:31:00,75.4,24.6,29.86,NNE,25,0.0,6.0,15,0.00,,SKC,0.00,VWS V14.01,2013-03-26 01:31:00,
2013-03-25 18:36:00,74.8,24.1,29.86,NNE,25,0.0,1.0,15,0.00,,SKC,0.00,VWS V14.01,2013-03-26 01:36:00,
2013-03-25 18:41:00,74.0,25.0,29.87,NNE,26,0.0,1.0,16,0.00,,SKC,0.00,VWS V14.01,2013-03-26 01:41:00,
2013-03-25 18:46:00,73.4,24.5,29.87,NNE,24,0.0,5.0,16,0.00,,SKC,0.00,VWS V14.01,2013-03-26 01:46:00,
2013-03-25 18:51:00,72.9,24.1,29.87,NNE,24,0.0,1.0,16,0.00,,SKC,0.00,VWS V14.01,2013-03-26 01:51:00,
2013-03-25 18:56:00,72.4,23.7,29.87,NNE,24,0.0,1.0,16,0.00,,SKC,0.00,VWS V14.01,2013-03-26 01:56:00,
2013-03-25 19:01:00,71.9,23.3,29.87,NNE,24,0.0,1.0,16,0.00,,SKC,0.00,VWS V14.01,2013-03-26 02:01:00,
2013-03-25 19:07:00,71.3,24.3,29.87,NNE,24,0.0,0.0,17,0.00,,SKC,0.00,VWS V14.01,2013-03-26 02:07:00,
2013-03-25 19:12:00,70.9,24.0,29.87,NNE,24,0.0,0.0,17,0.00,,SKC,0.00,VWS V14.01,2013-03-26 02:12:00,
2013-03-25 19:17:00,70.4,23.5,29.87,NNE,24,0.0,0.0,17,0.00,,SKC,0.00,VWS V14.01,2013-03-26 02:17:00,
2013-03-25 19:22:00,70.0,23.2,29.87,NNE,24,0.0,0.0,17,0.00,,SKC,0.00,VWS V14.01,2013-03-26 02:22:00,
2013-03-25 19:27:00,69.7,23.0,29.87,NNE,24,0.0,0.0,17,0.00,,SKC,0.00,VWS V14.01,2013-03-26 02:27:00,
2013-03-25 19:32:00,69.5,22.8,29.87,NNE,24,0.0,0.0,17,0.00,,SKC,0.00,VWS V14.01,2013-03-26 02:32:00,
2013-03-25 19:37:00,69.3,22.6,29.87,NNE,24,0.0,1.0,17,0.00,,SKC,0.00,VWS V14.01,2013-03-26 02:37:00,
2013-03-25 19:42:00,68.9,23.7,29.88,NNE,24,0.0,1.0,18,0.00,,SKC,0.00,VWS V14.01,2013-03-26 02:42:00,
2013-03-25 19:48:00,68.4,23.3,29.88,NNE,24,0.0,0.0,18,0.00,,SKC,0.00,VWS V14.01,2013-03-26 02:48:00,
2013-03-25 19:53:00,68.0,23.0,29.88,NNE,24,0.0,0.0,18,0.00,,SKC,0.00,VWS V14.01,2013-03-26 02:53:00,
2013-03-25 19:58:00,67.8,22.8,29.88,NNE,24,0.0,0.0,18,0.00,,SKC,0.00,VWS V14.01,2013-03-26 02:58:00,
2013-03-25 20:03:00,67.5,22.5,29.89,NNE,24,0.0,0.0,18,0.00,,SKC,0.00,VWS V14.01,2013-03-26 03:03:00,
2013-03-25 20:08:00,67.5,23.8,29.89,NE,39,0.0,2.0,19,0.00,,SKC,0.00,VWS V14.01,2013-03-26 03:08:00,
2013-03-25 20:13:00,67.3,22.4,29.89,NE,39,0.0,2.0,18,0.00,,SKC,0.00,VWS V14.01,2013-03-26 03:13:00,
2013-03-25 20:19:00,67.2,23.6,29.89,NE,38,0.0,1.0,19,0.00,,SKC,0.00,VWS V14.01,2013-03-26 03:19:00,
2013-03-25 20:24:00,67.1,23.5,29.89,NE,39,0.0,1.0,19,0.00,,SKC,0.00,VWS V14.01,2013-03-26 03:24:00,
2013-03-25 20:29:00,67.0,23.4,29.89,NE,38,0.0,1.0,19,0.00,,SKC,0.00,VWS V14.01,2013-03-26 03:29:00,
2013-03-25 20:34:00,66.8,23.2,29.89,NE,39,0.0,0.0,19,0.00,,SKC,0.00,VWS V14.01,2013-03-26 03:34:00,
2013-03-25 20:39:00,66.3,22.8,29.90,NE,39,0.0,0.0,19,0.00,,SKC,0.00,VWS V14.01,2013-03-26 03:39:00,
2013-03-25 20:44:00,65.8,22.4,29.90,NE,39,0.0,0.0,19,0.00,,SKC,0.00,VWS V14.01,2013-03-26 03:44:00,
2013-03-25 20:49:00,65.2,23.1,29.90,NE,38,0.0,0.0,20,0.00,,SKC,0.00,VWS V14.01,2013-03-26 03:49:00,
2013-03-25 20:54:00,64.7,22.7,29.90,NE,38,0.0,0.0,20,0.00,,SKC,0.00,VWS V14.01,2013-03-26 03:54:00,
2013-03-25 20:59:00,64.6,22.6,29.91,NE,39,0.0,0.0,20,0.00,,SKC,0.00,VWS V14.01,2013-03-26 03:59:00,
2013-03-25 21:00:00,64.6,22.6,29.91,NE,38,0.0,0.0,20,0.00,,SKC,0.00,VWS V14.01,2013-03-26 04:00:00,
2013-03-25 21:02:00,64.5,22.6,29.91,NE,39,0.0,0.0,20,0.00,,SKC,0.00,VWS V14.01,2013-03-26 04:02:00,
2013-03-25 21:07:00,64.4,22.5,29.91,NE,38,0.0,0.0,20,0.00,,SKC,0.00,VWS V14.01,2013-03-26 04:07:00,
2013-03-25 21:12:00,64.0,22.1,29.91,NE,36,2.0,2.0,20,0.00,,SKC,0.00,VWS V14.01,2013-03-26 04:12:00,
2013-03-25 21:17:00,64.1,22.2,29.91,NE,40,0.0,0.0,20,0.00,,SKC,0.00,VWS V14.01,2013-03-26 04:17:00,
2013-03-25 21:22:00,64.5,22.6,29.91,NE,40,0.0,0.0,20,0.00,,SKC,0.00,VWS V14.01,2013-03-26 04:22:00,
2013-03-25 21:28:00,64.8,22.8,29.91,NE,40,0.0,0.0,20,0.00,,SKC,0.00,VWS V14.01,2013-03-26 04:28:00,
2013-03-25 21:33:00,65.6,22.3,29.91,ENE,61,1.0,1.0,19,0.00,,SKC,0.00,VWS V14.01,2013-03-26 04:33:00,
2013-03-25 21:38:00,66.5,23.0,29.91,ENE,61,0.0,2.0,19,0.00,,SKC,0.00,VWS V14.01,2013-03-26 04:38:00,
2013-03-25 21:43:00,66.9,23.3,29.91,ENE,60,0.0,2.0,19,0.00,,SKC,0.00,VWS V14.01,2013-03-26 04:43:00,
2013-03-25 21:48:00,66.9,23.3,29.91,ENE,60,0.0,0.0,19,0.00,,SKC,0.00,VWS V14.01,2013-03-26 04:48:00,
2013-03-25 21:53:00,66.8,23.2,29.91,ENE,60,1.0,1.0,19,0.00,,SKC,0.00,VWS V14.01,2013-03-26 04:53:00,
2013-03-25 21:58:00,66.8,23.2,29.92,ENE,61,0.0,2.0,19,0.00,,SKC,0.00,VWS V14.01,2013-03-26 04:58:00,
2013-03-25 22:03:00,66.7,23.2,29.92,ENE,60,0.0,0.0,19,0.00,,SKC,0.00,VWS V14.01,2013-03-26 05:03:00,
2013-03-25 22:08:00,65.8,23.6,29.92,South,176,1.0,3.0,20,0.00,,SKC,0.00,VWS V14.01,2013-03-26 05:08:00,
2013-03-25 22:13:00,62.0,22.8,29.92,South,190,0.0,4.0,22,0.00,,SKC,0.00,VWS V14.01,2013-03-26 05:13:00,
2013-03-25 22:18:00,60.2,22.3,29.92,South,188,0.0,0.0,23,0.00,,SKC,0.00,VWS V14.01,2013-03-26 05:18:00,
2013-03-25 22:23:00,59.4,22.6,29.92,South,180,0.0,1.0,24,0.00,,SKC,0.00,VWS V14.01,2013-03-26 05:23:00,
2013-03-25 22:28:00,59.0,22.3,29.92,South,179,0.0,1.0,24,0.00,,SKC,0.00,VWS V14.01,2013-03-26 05:28:00,
2013-03-25 22:34:00,59.0,22.3,29.92,SSE,167,0.0,1.0,24,0.00,,SKC,0.00,VWS V14.01,2013-03-26 05:34:00,
2013-03-25 22:39:00,59.3,21.5,29.92,South,178,0.0,4.0,23,0.00,,SKC,0.00,VWS V14.01,2013-03-26 05:39:00,
2013-03-25 22:44:00,59.6,21.8,29.92,SE,141,0.0,4.0,23,0.00,,SKC,0.00,VWS V14.01,2013-03-26 05:44:00,
2013-03-25 22:49:00,60.0,22.1,29.92,SE,143,0.0,0.0,23,0.00,,SKC,0.00,VWS V14.01,2013-03-26 05:49:00,
2013-03-25 22:54:00,59.8,22.0,29.92,SE,143,0.0,0.0,23,0.00,,SKC,0.00,VWS V14.01,2013-03-26 05:54:00,
2013-03-25 22:59:00,59.5,21.7,29.92,SE,146,0.0,0.0,23,0.00,,SKC,0.00,VWS V14.01,2013-03-26 05:59:00,
2013-03-25 23:04:00,59.4,21.6,29.92,SE,146,0.0,0.0,23,0.00,,SKC,0.00,VWS V14.01,2013-03-26 06:04:00,
2013-03-25 23:09:00,59.0,22.3,29.92,SE,146,0.0,0.0,24,0.00,,SKC,0.00,VWS V14.01,2013-03-26 06:09:00,
2013-03-25 23:14:00,59.0,22.3,29.92,SE,146,0.0,0.0,24,0.00,,SKC,0.00,VWS V14.01,2013-03-26 06:14:00,
2013-03-25 23:19:00,59.0,22.3,29.92,SE,146,0.0,0.0,24,0.00,,SKC,0.00,VWS V14.01,2013-03-26 06:19:00,
2013-03-25 23:24:00,59.0,22.3,29.92,SE,146,0.0,0.0,24,0.00,,SKC,0.00,VWS V14.01,2013-03-26 06:24:00,
2013-03-25 23:29:00,58.7,22.0,29.91,SE,146,0.0,0.0,24,0.00,,SKC,0.00,VWS V14.01,2013-03-26 06:29:00,
2013-03-25 23:35:00,58.7,22.0,29.91,SE,146,0.0,0.0,24,0.00,,SKC,0.00,VWS V14.01,2013-03-26 06:35:00,
2013-03-25 23:40:00,58.5,21.9,29.91,SE,146,0.0,0.0,24,0.00,,SKC,0.00,VWS V14.01,2013-03-26 06:40:00,
2013-03-25 23:45:00,58.5,21.9,29.91,SE,146,0.0,0.0,24,0.00,,SKC,0.00,VWS V14.01,2013-03-26 06:45:00,
2013-03-25 23:50:00,58.4,21.8,29.91,SE,146,0.0,1.0,24,0.00,,SKC,0.00,VWS V14.01,2013-03-26 06:50:00,
2013-03-25 23:55:00,58.4,21.8,29.91,SE,146,0.0,1.0,24,0.00,,SKC,0.00,VWS V14.01,2013-03-26 06:55:00,